CZ-3B DEB, 40838

Orbit data source: Space-Track

CZ-3B DEB, 40838 is space debris in HEO originally from a launch on Mon, 19 Dec 2011 UTC launched from the Xichang Space Center, China (XSC). Debris objects in space refer to the collection of defunct objects orbiting the Earth. Examples of debris include non-operational satellites, rocket bodies, and fragments generated from explosions, collisions, or faulty payload assembly.

Loading next visibility...
Identifier
40838, 2011-077T
Orbit
HEO
Country
Flag of CNCN / PRC
Related business
Manufacturer
CALT
Mission
Spacecraft
Bus & Motor
Unknown
Mass
Unknown
Launch date (UTC)
2011-12-19 (14 years ago)
Launch vehicle
Unknown
Launch site
Xichang Space Center, China (XSC)
Object type
Payload
Rocket body
Debris
Shape & HBR
Unknown shape, 0.2 m
Radar Cross Section
Medium (>0.1 m² and <1 m²)

Expand to show TLE details & history
Last TLE update: 2 days ago

TLE from 2 days ago
0 CZ-3B DEB
1 40838U 11077T   25346.99428347  .00000719  00000-0  97411-2 0  9996
2 40838  26.5851 281.0037 7448218 155.2720 276.6119  1.95638886 76592
Epoch: 2025-12-12T23:51Z
TLE epoch observation values (Epoch: 2025-12-12T23:51:46.091Z)
Latitude
0.00005°
Longitude
-158.92137°
Altitude
30,780.716 km
Speed
2.587 km/s
True Right ascension
18h 43m 47s
True Declination
0° 00' 00"
Sunlit
Object was in daylight at epoch
Visualization orbit readout
Latitude
Unknown
Longitude
Unknown
Altitude
Unknown
Speed
Unknown
Apparent Right ascension
Unknown
Apparent Declination
Unknown
Sunlit
N/A
Visualization observer readout
Local Sidereal Time
17:48:21
Azimuth
Unknown
Elevation
Unknown
Doppler factor
Unknown
Orbital elements
Apogee altitude
40,746.154 km
Perigee altitude
513.737 km
Semi-major axis
27,008.083 km
Eccentricity
0.74482
Inclination
26.5851°
RAAN
281.0037°
Arg. of periapsis
155.272°
True anomaly
204.77924°
Mean anomaly
276.6119°
Eccentric anomaly
239.74825°
Mean motion
0.48899 °/min
Orbital period
736.21 mins
BSTAR
0.0097411
Loading maneuver chart data...
Computing Atmospheric mass density...
Loading historical data...
Loading historical data...
Loading historical data...
Loading historical data...
Loading historical data...
Loading historical data...
Loading historical data...

Documentation

Showing up to 5 results
|